Miscellaneous Local Product
Issued by NWS Hastings, NE

Home | Current Version | Previous Version | Text Only | Print | Product List | Glossary On
Versions: 1 2 3 4 5 6 7 8 9 10 11 12 13 14 15 16 17 18 19 20 21 22 23 24 25 26 27 28 29 30 31 32 33 34 35 36 37 38 39 40 41 42 43 44 45 46 47 48 49 50
441
AXUS43 KGID 070902
MISGRI

GID CWA HOURLY WEATHER ROUNDUP
NATIONAL WEATHER SERVICE HASTINGS NE
300 AM CST SUN FEB 07 2016

NOTE: "FAIR" INDICATES FEW OR NO CLOUDS BELOW 12,000 FEET WITH NO
SIGNIFICANT WEATHER AND/OR OBSTRUCTIONS TO VISIBILITY.

...SOUTH CENTRAL NEBRASKA...

CITY           SKY/WX    TMP DP  RH WIND       PRES   REMARKS
GRAND ISLAND   PTCLDY    33  25  72 W12       30.01S WCI  24
HASTINGS       CLOUDY    34  26  72 NW12      30.01S WCI  25
ORD            PTCLDY    36  25  64 NW20G25   30.00R WCI  25
YORK           PTCLDY    34  28  80 NW17      29.98R WCI  23
AURORA         PTCLDY    34  27  76 NW12      29.99S WCI  25
LEXINGTON      PTCLDY    34  27  75 W10       30.06S WCI  26
HOLDREGE       CLOUDY    35  28  73 NW13      30.05R WCI  27
HEBRON         CLOUDY    35  28  75 NW9       30.00R WCI  28

...NEBRASKA PANHANDLE...

CITY           SKY/WX    TMP DP  RH WIND       PRES   REMARKS
CHADRON        CLOUDY    35  21  56 W13       30.13R WCI  26
ALLIANCE       PTCLDY    20  14  77 W14       30.10S WCI   7
SCOTTSBLUFF    PTCLDY    26  18  71 CALM      30.15R
SIDNEY         CLEAR     31  18  58 NW15      30.13S WCI  20

...WESTERN AND NORTH CENTRAL NEBRASKA...

CITY           SKY/WX    TMP DP  RH WIND       PRES   REMARKS
VALENTINE      CLOUDY    36  24  62 W14G24    30.02S WCI  27
AINSWORTH      CLEAR     36  24  61 W13G18    30.02R WCI  27
ONEILL         CLOUDY    39  25  56 W18G29    29.98R WCI  30
BROKEN BOW     CLEAR     37  24  59 NW22      30.03R WCI  26
IMPERIAL       CLOUDY    33  22  63 NW13      30.11S WCI  24
NORTH PLATTE   CLOUDY    28  22  78 W7        30.08R WCI  21
MCCOOK         CLOUDY    35  26  69 W14       30.09F WCI  26

...EASTERN NEBRASKA...

CITY           SKY/WX    TMP DP  RH WIND       PRES   REMARKS
NORFOLK        CLEAR     36  25  64 W13       29.93R WCI  27
SO SIOUX CITY  PTCLDY    42  27  55 NW15      29.88S
TEKAMAH        CLOUDY    33  25  72 VRB3      29.92R
COLUMBUS       CLOUDY    34  19  55 W9        29.96R WCI  26
ALBION         CLEAR     39  25  58 NW15G22   29.96S WCI  30
OMAHA EPPLEY   CLOUDY    35  27  72 W3        29.93R
OFFUTT AFB     CLOUDY    33  27  79 W8        29.93R WCI  26
MILLARD        CLOUDY    31  27  84 CALM      29.93R
LINCOLN        CLOUDY    31  25  78 SW3       29.97R
NEBRASKA CITY  MOCLDY    34  28  80 W9        29.93F WCI  26
BEATRICE       CLOUDY    33  28  85 W7        29.98R WCI  26
FALLS CITY     CLOUDY    38  26  62 SW12      29.95F WCI  30

...NORTHERN KANSAS...

CITY           SKY/WX    TMP DP  RH WIND       PRES   REMARKS
GOODLAND       CLOUDY    29  22  75 NW13      30.13R WCI  19
HILL CITY      CLOUDY    37  28  70 NW10      30.08F WCI  30
NORTON         SUNNY     36  27  69 W12       30.07S WCI  27
PHILLIPSBURG   CLOUDY    37  28  70 NW10      30.07R WCI  30
BELOIT         CLEAR     34  28  80 W7        30.03S WCI  28
HAYS           CLOUDY    37  23  56 NW13      30.07F WCI  29
RUSSELL        CLOUDY    37  29  72 NW14      30.05S WCI  28
CONCORDIA      CLOUDY    35  27  72 W12       30.02R WCI  27
SALINA         CLOUDY    39  23  52 SW7       30.04F WCI  34
TOPEKA         MOCLDY    41  25  53 SW10      30.00F



USA.gov is the U.S. government's official web portal to all federal, state and local government web resources and services.